www.pogodaiklimat.ru

Погода и климат >> Архив погоды >> Австрия >> Брегенц


ПОГОДА в Брегенце

  • Прогноз погоды в Брегенце
  • Монитор погоды в Брегенце

АРХИВ ПОГОДЫ в Брегенце

Время (UTC), дата Ветер
(напр.,м/с)
 
Видим.   Явления Облачность Т
(С)
Тd
(С)
f
(%)
Тe
(С)
Тes
(С)
Комфортность P
(гПа)
Po
(гПа)
Тmin
(С)
Tmax
(С)
R
(мм)
R24
(мм)
S
(см)
10 14.08 З 1 н/о н/о +18.4 +11.2 63 +20 +20 1019.6 969.2
11 14.08 СЗ 2 н/о н/о +19.5 +6.7 43 +21 +21 комфорт 1019.3 969.0
12 14.08 СЗ 4 30 км 4/4 1350 м
[Cu med, cong Ac cuf]
+19.7 +7.1 44 +21 +27 комфорт 1018.9 968.7
13 14.08 СЗ 3 н/о н/о +20.9 +6.2 38 +22 +22 комфорт 1018.1 968.1
14 14.08 СЗ 2 н/о н/о +21.2 +6.4 38 +22 +22 комфорт 1017.7 967.8
15 14.08 СЗ 2 н/о н/о +21.5 +4.1 32 +22 +22 комфорт 1017.4 967.5
16 14.08 СЗ 2 н/о н/о +21.8 +5.5 35 +22 +22 комфорт 1016.8 967.0
17 14.08 СЗ 1 н/о н/о +22.2 +5.5 34 +23 +23 комфорт 1016.4 966.7
18 14.08 В 1 н/о н/о +18.9 +11.4 62 +21 +21 комфорт 1016.8 966.6 +12.7 +22.7
19 14.08 В 2 н/о н/о +16.1 +10.6 70 +16 +16 1017.4 966.7
20 14.08 В 1 н/о н/о +14.4 +10.0 75 +15 +15 1017.8 966.8
21 14.08 ЮВ 1 н/о н/о +13.8 +10.1 78 +14 +14 1017.8 966.7
22 14.08 Ю 1 н/о н/о +13.7 +10.2 79 +14 +14 1017.9 966.8
23 14.08 ЮВ 1 н/о н/о +13.1 +10.0 81 +13 +13 1018.0 966.7
00 15.08 Ю 1 н/о н/о +12.7 +9.7 82 +13 +13 1017.7 966.4
01 15.08 ЮВ 1 н/о н/о +12.3 +9.4 82 +12 +12 1017.4 966.0
02 15.08 ЮВ 2 н/о н/о +12.1 +9.4 84 +11 +11 1017.6 966.2
03 15.08 ЮВ 5 н/о н/о +16.3 +8.4 59 +15 +15 1015.8 965.2
04 15.08 ЮВ 6 н/о н/о +15.9 +8.0 59 +15 +15 1015.8 965.1
05 15.08 ЮВ 4 н/о н/о +15.0 +8.2 64 +14 +14 1016.2 965.3
06 15.08 ЮВ 4 н/о н/о +15.1 +8.4 64 +14 +15 1016.2 965.4 +12.0 +18.8
07 15.08 Ю 4 н/о н/о +16.1 +9.8 66 +15 +15 1016.2 965.5
08 15.08 В 2 н/о н/о +16.4 +9.5 64 +17 +17 1016.4 965.8 0.0
09 15.08 ЮВ 1 25 км в посл. час ливневой дождь 8/3 1350 м
[Sc Ac lent Ci fib]
+17.5 +9.9 61 +19 +24 1015.9 965.5 0.0
10 15.08 Ю 2 н/о н/о +19.9 +11.5 58 +22 +22 комфорт 1015.1 965.2
11 15.08 СЗ 1 н/о н/о +20.7 +11.6 56 +24 +24 комфорт 1015.5 965.7 0.0
12 15.08 С 1 н/о слаб. ливневой дождь н/о +17.8 +14.3 80 +19 +25 1016.1 965.8 0.3
13 15.08 СЗ 2 н/о н/о +20.4 +12.9 62 +23 +23 комфорт 1015.2 965.4
14 15.08 ЮЗ 2 н/о осадки н/о +19.2 +13.3 69 +21 +21 комфорт 1016.3 966.2 0.6
15 15.08 В 3 н/о в посл. час осадки н/о +17.2 +15.6 90 +17 +17 1016.3 965.9 4
16 15.08 ЮВ 2 н/о н/о +19.6 +15.1 75 +22 +22 комфорт 1015.4 965.5
17 15.08 ЮВ 4 н/о н/о +20.5 +14.8 70 +23 +23 комфорт 1015.2 965.4
18 15.08 СЗ 3 н/о осадки н/о +17.8 +14.9 83 +18 +18 1016.7 966.4 +14.6 +22.0 7
19 15.08 ЮВ 2 н/о н/о +15.7 +14.6 93 +16 +16 1018.1 967.4
20 15.08 В 2 н/о н/о +15.5 +14.7 95 +15 +15 1018.9 968.1
21 15.08 ЮВ 2 н/о н/о +15.4 +14.6 95 +15 +15 1019.6 968.7
22 15.08 ЮВ 1 н/о н/о +15.4 +14.2 93 +16 +16 1020.0 969.1
23 15.08 ЮВ 2 н/о н/о +15.3 +14.1 93 +15 +15 1020.1 969.2
00 16.08 Ю 3 н/о н/о +15.7 +13.5 87 +15 +15 1020.2 969.3
01 16.08 ЮВ 3 н/о н/о +15.8 +13.1 84 +15 +15 1020.4 969.5
02 16.08 ЮВ 1 н/о н/о +15.2 +13.8 91 +16 +16 1020.5 969.5
03 16.08 ЮВ 5 н/о н/о +15.5 +13.7 89 +14 +14 1020.5 969.6
04 16.08 ЮВ 4 н/о осадки н/о +15.1 +13.4 90 +14 +14 1020.9 969.9 0.1
05 16.08 ЮВ 4 н/о в посл. час осадки н/о +14.7 +12.8 88 +13 +13 1020.7 969.6 0.7
06 16.08 Ю 1 25 км в посл. час ливневой дождь 4/4 900 м
[Cu hum Ac lent Ci fib]
+14.5 +13.5 94 +15 +16 1020.6 969.5 +14.4 +17.6 0.9
07 16.08 ЮВ 3 н/о н/о +16.2 +13.9 86 +16 +16 1020.5 969.7
08 16.08 Ю 3 н/о н/о +17.8 +13.4 75 +18 +18 1020.1 969.6
09 16.08 ЮВ 1 30 км 3/3 1050 м
[Cu hum Ac lent Ci fib]
+19.0 +12.3 65 +21 +30 комфорт 1019.8 969.5
10 16.08 СЗ 2 н/о н/о +19.9 +11.5 58 +22 +22 комфорт 1019.1 969.0
11 16.08 СЗ 2 н/о н/о +20.8 +11.7 56 +24 +24 комфорт 1018.7 968.7
12 16.08 СЗ 2 30 км 4/3 1200 м
[Cu Sc Ac trans Ci fib]
+21.4 +9.9 48 +23 +32 комфорт 1017.7 967.9
13 16.08 З 3 н/о н/о +22.2 +9.1 43 +24 +24 комфорт 1017.0 967.3
14 16.08 СЗ 2 н/о н/о +22.5 +8.8 42 +24 +24 комфорт 1016.2 966.6
15 16.08 З 2 н/о н/о +23.4 +9.3 41 +25 +25 комфорт 1015.3 965.9
16 16.08 З 2 н/о н/о +23.1 +11.3 47 +25 +25 комфорт 1015.3 965.9
17 16.08 З 2 н/о н/о +23.0 +9.9 43 +25 +25 комфорт 1015.1 965.6
18 16.08 СВ 1 н/о н/о +20.2 +13.2 64 +23 +23 комфорт 1015.3 965.4 +14.4 +23.8 0.0
19 16.08 В 2 н/о н/о +17.3 +12.8 75 +18 +18 1015.8 965.4
20 16.08 ЮВ 1 н/о н/о +15.9 +12.1 78 +17 +17 1016.1 965.5
21 16.08 Ю 2 н/о н/о +16.5 +12.4 77 +17 +17 1016.1 965.6
22 16.08 ЮВ 2 н/о н/о +15.5 +12.4 82 +15 +15 1016.4 965.7
23 16.08 ЮВ 4 н/о н/о +17.9 +11.1 64 +18 +18 1015.6 965.3
00 17.08 ЮВ 4 н/о н/о +16.0 +11.4 74 +15 +15 1015.8 965.2
01 17.08 ЮВ 4 н/о н/о +17.5 +10.9 65 +17 +17 1015.3 964.9
02 17.08 ЮВ 6 н/о н/о +17.1 +10.5 65 +16 +16 1015.2 964.8
03 17.08 ЮВ 6 н/о н/о +17.8 +10.0 60 +17 +17 1014.6 964.3
04 17.08 ЮВ 6 н/о н/о +17.9 +9.9 59 +17 +17 1014.9 964.6
05 17.08 ЮВ 6 30 км 9/0
[Ac As Cc]
+18.7 +9.2 54 +19 +19 1014.6 964.5 +18.0 +19.0
06 17.08 ЮВ 4 35 км 9/0
[Ac As Cc]
+18.4 +9.7 57 +19 +19 1014.9 964.7 +14.7 +20.2
07 17.08 ЮВ 5 н/о н/о +18.6 +10.2 58 +19 +19 1015.3 965.1
08 17.08 ЮВ 5 н/о н/о +19.8 +11.9 60 +21 +21 комфорт 1014.6 964.7
09 17.08 ЮВ 5 40 км 10/0
[Ac As]
+21.2 +13.1 60 +24 +25 комфорт 1014.5 964.8
10 17.08 ЮВ 3 н/о н/о +22.3 +11.4 50 +24 +24 комфорт 1014.6 965.1
11 17.08 В 1 н/о н/о +22.2 +14.1 60 +25 +25 комфорт 1014.6 965.1
12 17.08 С 1 35 км 10/0
[Ac As]
+24.2 +11.8 46 +26 +31 жарко 1013.8 964.6
13 17.08 СЗ 1 н/о н/о +23.9 +10.4 43 +25 +25 комфорт 1013.0 963.8
14 17.08 В 1 н/о н/о +22.1 +15.9 68 +26 +26 душно 1012.9 963.5
15 17.08 В 1 н/о н/о +22.4 +16.2 68 +27 +27 душно 1012.4 963.1
16 17.08 В 1 н/о н/о +20.8 +15.6 72 +25 +25 комфорт 1013.0 963.4 0.0
17 17.08 В 1 н/о н/о +19.7 +16.1 80 +23 +23 комфорт 1013.0 963.2 0.0
18 17.08 ЮВ 1 н/о н/о +19.5 +14.7 74 +22 +22 комфорт 1012.8 963.0 +17.8 +24.5 0.0
19 17.08 Ю 1 н/о н/о +19.3 +15.1 77 +22 +22 комфорт 1013.0 963.1
20 17.08 В 2 н/о н/о +19.0 +14.9 77 +21 +21 комфорт 1013.3 963.4
21 17.08 ЮВ 2 н/о н/о +19.1 +15.2 78 +21 +21 комфорт 1013.1 963.2 0.0
22 17.08 Ю 4 н/о н/о +19.4 +15.4 78 +21 +21 комфорт 1012.2 962.4
23 17.08 ЮВ 5 н/о н/о +20.8 +13.8 64 +23 +23 комфорт 1011.7 962.1
00 18.08 ЮВ 6 н/о н/о +22.3 +12.9 55 +25 +25 комфорт 1011.2 961.9 0.0
01 18.08 ЮВ 6 н/о н/о +20.5 +13.2 63 +23 +23 комфорт 1011.4 961.8
02 18.08 ЮВ 6 н/о н/о +22.0 +12.6 55 +25 +25 комфорт 1011.2 961.8
03 18.08 ЮВ 4 н/о н/о +21.7 +11.8 53 +24 +24 комфорт 1010.9 961.5
04 18.08 ЮВ 5 н/о н/о +21.6 +11.7 53 +24 +24 комфорт 1011.1 961.6
05 18.08 ЮВ 5 40 км 1/0
[Ac lent]
+21.1 +11.4 54 +23 +23 комфорт 1011.5 961.9 +21.1 +21.7
06 18.08 Ю 4 45 км {морось} ясно +20.1 +12.3 61 +22 +23 комфорт 1011.5 961.8 +18.7 +22.6 0.0
07 18.08 ЮВ 6 н/о н/о +22.2 +11.6 51 +24 +24 комфорт 1011.2 961.8
08 18.08 Ю 5 н/о н/о +23.8 +13.9 54 +26 +26 жарко 1010.3 961.3
09 18.08 Ю 4 45 км ясно +25.6 +14.1 49 +28 +35 жарко 1009.8 961.1
10 18.08 Ю 2 н/о н/о +26.5 +13.0 43 +28 +28 жарко 1009.6 961.0
11 18.08 Ю 2 н/о н/о +28.1 +12.6 38 +29 +29 жарко 1008.8 960.5
12 18.08 СЗ 1 40 км ясно +27.3 +13.2 42 +29 +46 жарко 1008.6 960.2
13 18.08 СЗ 1 н/о н/о +28.0 +14.0 42 +30 +30 жарко 1008.0 959.8
14 18.08 З 1 н/о н/о +29.0 +13.9 40 +31 +31 жарко 1007.8 959.7
15 18.08 СЗ 1 н/о н/о +30.9 +13.9 36 +33 +33 душно 1006.7 959.0
16 18.08 СВ 2 н/о н/о +29.9 +15.8 43 +33 +33 душно 1006.8 958.9
17 18.08 С 1 н/о н/о +28.9 +15.5 44 +32 +32 душно 1007.7 959.6
18 18.08 С 1 н/о н/о +25.8 +18.7 65 +31 +31 очень
душно
1008.2 959.7 +19.3 +33.4
19 18.08 В 2 н/о н/о +23.7 +17.4 68 +28 +28 душно 1008.9 960.0
20 18.08 В 2 н/о н/о +22.8 +16.5 68 +27 +27 душно 1009.9 960.8
21 18.08 В 2 н/о н/о +22.1 +16.9 72 +26 +26 душно 1010.1 960.9
22 18.08 В 1 н/о н/о +21.5 +17.1 76 +25 +25 комфорт 1011.4 962.0
23 18.08 СЗ 3
{15}
н/о н/о +20.0 +16.4 80 +23 +23 комфорт 1015.1 965.3
00 19.08 З 1
{15}
н/о н/о +19.0 +17.6 92 +22 +22 комфорт 1017.4 967.3 6
01 19.08 В 1 н/о н/о +17.9 +16.8 93 +19 +19 1017.4 967.1 13
02 19.08 В 2 н/о осадки н/о +17.3 +16.0 92 +18 +18 1016.9 966.5 1
03 19.08 В 5 н/о осадки н/о +17.4 +15.9 91 +17 +17 1015.9 965.6 16
04 19.08 В 3 н/о в посл. час осадки н/о +17.4 +15.9 91 +17 +17 1015.7 965.4 0.6
05 19.08 ЮВ 2 1500 м слаб. дождь {морось} 10/4 450 м
[Frnb As op]
+17.4 +16.5 94 +18 +18 1017.4 967.0 +17.1 +17.5 0.6
06 19.08 ЮВ 4 4000 м слаб. дождь 10/0
[As op]
+17.8 +15.8 88 +18 +18 1017.4 967.1 +17.1 +25.8 25
07 19.08 Ю 3 н/о в посл. час осадки н/о +18.1 +16.2 89 +18 +18 1016.6 966.4 0.8
08 19.08 ЮВ 4 н/о н/о +18.8 +15.8 83 +20 +20 1017.1 967.0
09 19.08 ЮВ 5 30 км {дождь, морось} 9/0
[Ac As Cc]
+20.8 +15.6 72 +24 +26 комфорт 1016.7 966.9 0.8
10 19.08 Ю 2 н/о н/о +21.5 +16.3 72 +25 +25 комфорт 1016.6 966.9
11 19.08 штиль 0 н/о н/о +22.6 +15.1 63 +26 +26 жарко 1016.8 967.3
12 19.08 СЗ 2 20 км {дождь, морось} 8/1 450 м
[St Ac As Cc]
+23.1 +15.2 61 +27 +35 душно 1016.8 967.4 0.8
13 19.08 СЗ 2 н/о н/о +23.2 +15.4 62 +27 +27 душно 1016.7 967.3
14 19.08 СЗ 2 н/о н/о +23.6 +15.8 62 +27 +27 жарко 1016.4 967.1
15 19.08 З 2 н/о н/о +23.7 +15.2 59 +27 +27 жарко 1016.6 967.3
16 19.08 З 2 н/о н/о +23.0 +15.1 61 +27 +27 душно 1016.8 967.4
17 19.08 В 1 н/о н/о +21.4 +17.7 79 +26 +26 душно 1017.0 967.3
18 19.08 СЗ 3 н/о ливневой дождь н/о +20.1 +17.5 85 +23 +23 комфорт 1017.8 967.9 +17.5 +24.0 2
19 19.08 В 1 н/о н/о +19.2 +17.8 92 +22 +22 комфорт 1017.9 967.8 0.0
20 19.08 СВ 2 н/о в посл. час осадки н/о +18.6 +17.1 91 +20 +20 1018.9 968.7 0.5
21 19.08 С 2 н/о ливневой дождь {осадки} н/о +18.5 +17.3 93 +20 +20 1019.3 969.0 0.7
22 19.08 ЮЗ 1 н/о в посл. час осадки н/о +18.1 +17.1 94 +19 +19 1020.3 969.9 5
23 19.08 В 2 н/о осадки н/о +17.9 +16.9 94 +18 +18 1020.1 969.7 0.8
00 20.08 СВ 1 н/о в посл. час осадки {ливн. осадки} н/о +17.9 +17.0 94 +19 +19 1020.1 969.7 6
01 20.08 В 1 н/о н/о +17.8 +17.0 95 +19 +19 1019.7 969.3 0.0
02 20.08 СЗ 1 н/о осадки н/о +17.7 +16.2 91 +19 +19 1019.4 969.0 0.3
03 20.08 СЗ 1 н/о в посл. час осадки н/о +17.5 +16.3 93 +19 +19 1019.7 969.2 0.4
04 20.08 СВ 2 н/о в посл. час осадки н/о +16.9 +16.0 94 +17 +17 1020.2 969.6 0.2
05 20.08 СВ 1 1000 м слаб. морось {дождь} 10/6 270 м
[Frnb As op]
+16.7 +16.1 96 +18 +18 1020.1 969.5 +16.6 +16.9 0.1
06 20.08 СВ 1 1000 м слаб. дождь {морось} 10/6 210 м
[Frnb As op]
+16.8 +16.2 96 +18 +18 1020.2 969.6 +16.6 +20.1 7
07 20.08 штиль 0 н/о осадки н/о +17.2 +16.0 93 +17 +17 1020.2 969.6 0.4
08 20.08 штиль 0 н/о осадки н/о +17.5 +16.2 92 +17 +17 1020.0 969.5 0.7
09 20.08 СЗ 2 3000 м слаб. дождь {морось} 10/5 150 м
[Frnb As op]
+17.7 +16.1 90 +18 +19 1020.6 970.1 2
10 20.08 штиль 0 н/о осадки н/о +17.9 +16.2 90 +18 +18 1020.5 970.1 0.5
11 20.08 З 2 н/о осадки н/о +17.8 +16.4 92 +18 +18 1020.4 969.9 0.5
12 20.08 З 4 1000 м дождь {морось} 10/6 150 м
[Frnb As op]
+17.1 +16.0 93 +17 +17 1020.9 970.3 4
13 20.08 СЗ 1 н/о осадки н/о +15.9 +14.3 90 +17 +17 1022.1 971.2 3
14 20.08 ЮВ 2 н/о осадки н/о +15.8 +14.5 92 +16 +16 1022.3 971.4 2
15 20.08 Ю 3 н/о ливневой дождь {осадки} н/о +15.3 +14.4 94 +15 +15 1023.6 972.5 9
16 20.08 С 4 н/о осадки н/о +15.1 +13.5 90 +14 +14 1024.4 973.2 3
17 20.08 З 1 н/о н/о +14.8 +13.8 94 +15 +15 1024.7 973.5 6
18 20.08 СЗ 4 н/о {ливн. осадки} н/о +14.5 +13.3 93 +13 +13 1025.9 974.5 +14.5 +18.2 28
19 20.08 З 4 н/о н/о +14.1 +13.2 94 +13 +13 1027.2 975.7 7
20 20.08 СЗ 3 н/о осадки н/о +13.8 +12.9 94 +13 +13 1028.1 976.5 5
21 20.08 ЮВ 1 н/о осадки н/о +13.4 +12.8 96 +13 +13 1028.2 976.5 15
22 20.08 ЮВ 1 н/о осадки н/о +13.0 +12.4 96 +13 +13 1028.3 976.5 3
23 20.08 штиль 0 н/о осадки н/о +12.6 +12.1 97 +12 +12 1027.6 975.8 2
00 21.08 В 1 н/о ливневой дождь {осадки} н/о +12.6 +12.1 97 +12 +12 1028.1 976.3 20
01 21.08 Ю 1 н/о в посл. час осадки н/о +12.7 +12.2 97 +13 +13 1027.8 976.0 0.1
02 21.08 ЮВ 1 н/о н/о +12.7 +12.2 97 +13 +13 1028.0 976.2
03 21.08 ЮВ 1 н/о {осадки} н/о +12.6 +12.0 96 +13 +13 1028.0 976.2 0.1
04 21.08 В 1 н/о н/о +12.2 +11.8 97 +12 +12 1027.7 975.8
05 21.08 В 1 3000 м 9/4 150 м
[St Ac As]
+12.5 +12.0 97 +12 +12 1028.0 976.2 +12.2 +12.5
06 21.08 штиль 0 3000 м {дождь, морось} 5/3 270 м
[St Ac lent Cc]
+12.7 +12.2 97 +12 +13 1027.8 976.0 +12.2 +14.5 20
07 21.08 ЮВ 1 н/о н/о +13.7 +12.8 94 +14 +14 1027.9 976.3
08 21.08 Ю 1 н/о н/о +14.9 +12.7 87 +15 +15 1027.2 975.8
09 21.08 штиль 0 8000 м 8/5 720 м
[Sc Ac trans Cc]
+16.8 +13.3 80 +17 +22 1026.6 975.6

 

Местоположение метеостанции Брегенц (Австрия): широта 47.50 долгота 9.75 высота над уровнем моря 439 м.

В архиве по умолчанию представлена погода в Брегенце за последнюю неделю. Архивные данные за месяц целиком и за предыдущие месяцы, начиная с января 2011 года, Вы можете получить, выбрав интересующий диапазон дат из раскрывающегося списка и нажав кнопку "Ввод!".


*Определитесь, кто Вы:
робот инопланетянин человек

Внимание! Время в таблицах - всемирное. Для получения местного времени необходимо прибавить поправку, которая равна 1 ч.

Смотрите также архив погоды в соседних городах и на ближайших метеорологических станциях:

Погода в Дорнбирне (Австрия) (8 км)
Погода в Альбершвенде (Австрия) (9 км)
Погода в Санкт-Галлен-Альтенрайне (Швейцария) (14 км)
Погода в Фельдкирхе (Австрия) (27 км)
Погода в Санкт-Галлене (Швейцария) (27 км)
Погода в Гуттингене (Швейцария) (37 км)
Погода в Бишофсцелле (Швейцария) (39 км)
Погода в Херлацхофене (Германия) (39 км)
Погода на Зентисе (Швейцария) (41 км)
Погода в Оберстдорфе (Германия) (41 км)

Пояснения к столбцам:

Ветер - указаны скорость ветра в м/с - средняя за 10 мин, порывы в срок и между сроками (в фигурных скобках) и направление, откуда дует ветер: С - северный, СВ - северо-восточный, В - восточный, ЮВ - юго-восточный, Ю - южный, ЮЗ - юго-западный, З - западный, СЗ - северо-западный.
Видимость - горизонтальная дальность видимости в метрах или километрах. При видимости от 1 до 10 км при отсутствии осадков обычно наблюдается дымка, при ухудшении видимости до 1 км и менее - туман. В сухую погоду видимость может ухудшаться дымом, пылью или мглою.
Явления - указаны атмосферные явления, наблюдавшиеся в срок или в последний час перед сроком; фигурными скобками обозначены явления, наблюдавшиеся между сроками (за 1-3 часа до срока); квадратными скобками обозначены град или гололедные отложения с указанием их диаметра в мм.
Облачность - указаны через наклонную черту общая и нижняя облачность в баллах и высота нижней границы облаков в метрах; квадратными скобками обозначены формы облаков: Ci - перистые, Cs - перисто-слоистые, Cc - перисто-кучевые, Ac - высококучевые, As - высокослоистые, Sc - слоисто-кучевые, Ns - слоисто-дождевые, Cu - кучевые, Cb - кучево-дождевые. Подробнее классификацию облаков см. в Атласе облаков (PDF).
T - Температура воздуха - температура, измеренная на высоте 2 м над землей.
Td - Температура точки росы - температура, при понижении до которой содержащийся в воздухе водяной пар достигнет насыщения.
f - Относительная влажность воздуха - влажноcть воздуха, измеренная на высоте 2 м над землей.
Te - Эффективная температура - температура, которую ощущает одетый по сезону человек в тени. Характеристика душности погоды. При расчете учитывается влияние влажности воздуха и скорости ветра на теплоощущения человека.
Tes - Эффективная температура на солнце - температура, которую ощущает человек, с поправкой на солнечный нагрев. Характеристика знойности погоды. Зависит от высоты солнца над горизонтом, облачности и скорости ветра. Ночью, в пасмурную погоду, а также при ветре 12 м/с и более поправка равна нулю.
P - Атмосферное давление - приведенное к уровню моря атмосферное давление.
Po - Атмосферное давление - измеренное на уровне метеостанции атмосферное давление.
Tmin - Минимальная температура - минимум температуры воздуха на высоте 2 м над землей.
Tmax - Максимальная температура - максимум температуры воздуха на высоте 2 м над землей.
R - Количество осадков - Количество выпавших осадков за период времени, мм. При наведении курсора мыши на число - период времени, за который выпало указанное количество осадков.
R24 - Количество осадков - Количество выпавших осадков за 24 часа, мм.
S - Снежный покров - Высота снежного покрова, см. При наведении курсора мыши на число - состояние снежного покрова и степень покрытия местности в баллах.